Regional Weather Roundup
Issued by NWS Burlington, VT

Current Version | Previous Version | Graphics & Text | Print | Product List | Glossary On
Versions: 1 2 3 4 5 6 7 8 9 10 11 12 13 14 15 16 17 18 19 20 21 22 23 24 25 26 27 28 29 30 31 32 33 34 35 36 37 38 39 40 41 42 43 44 45 46 47 48 49 50
000
ASUS41 KBTV 241131
RWRBTV
VERMONT REGIONAL WEATHER ROUNDUP
NATIONAL WEATHER SERVICE BURLINGTON VT
700 AM EDT THU JUN 24 2021

NOTE: "FAIR" INDICATES FEW OR NO CLOUDS BELOW 12,000 FEET WITH NO
SIGNIFICANT WEATHER AND/OR OBSTRUCTIONS TO VISIBILITY.

* THESE REPORTS ARE NOT UNDER NWS QUALITY CONTROL AND/OR DO NOT
  REPORT WEATHER SUCH AS PRECIPITATION AND FOG.

VTZ001>019-241200-
_____VERMONT_____


CITY           SKY/WX    TMP DP  RH WIND       PRES   REMARKS
BURLINGTON     MOSUNNY   55  47  74 E3        30.34R
MONTPELIER     SUNNY     48  46  93 CALM      30.42R
MORRISVILLE    SUNNY     47  45  93 S6        30.38R
ST. JOHNSBURY*   N/A     45  44  97 MISG      30.39R
MIDDLEBURY*    FAIR      58  45  62 SE3       30.36S
RUTLAND*       MOSUNNY   50  46  86 CALM      30.39R
SPRINGFIELD    CLOUDY    46  46 100 CALM      30.42S FOG
HIGHGATE*      FAIR      60  44  56 S6        30.33R
NEWPORT*       FAIR      51  49  92 SW3       30.39R
BENNINGTON     SUNNY     51  48  89 N3        30.38R
ISLAND POND*     N/A     45 N/A N/A CALM        N/A
GALLUP MILLS*    N/A     45 N/A N/A MISG        N/A
LAKE EDEN*       N/A     48 N/A N/A SE1         N/A
MT. MANSFIELD*   N/A     54 N/A N/A W6          N/A

_____LAKE CHAMPLAIN_____


CITY           SKY/WX    TMP DP  RH WIND       PRES   REMARKS
COLCHESTER RF*   N/A     59  52  77 S22         N/A
DIAMOND ISL*     N/A     55  48  76 S7          N/A

$$

NYZ007-026>031-035-052-083-087-241200-
_____NORTHERN NEW YORK_____


CITY           SKY/WX    TMP DP  RH WIND       PRES   REMARKS
PLATTSBURGH    SUNNY     51  46  83 MISG      30.33R
SARANAC LAKE   SUNNY     44  42  93 CALM      30.33R
MASSENA        SUNNY     56  47  71 CALM      30.27S
OGDENSBURG*    FAIR      57  46  67 VRB6      30.23F
POTSDAM*       SUNNY     63  46  55 S8        30.27S
WATERTOWN      SUNNY     62  47  57 CALM      30.26R
FT DRUM        SUNNY     55  44  68 SE14      30.27R
ALBANY         MOSUNNY   50  49  96 CALM      30.38R
GLENS FALLS    SUNNY     50  48  93 CALM      30.38R

$$
NHZ002-005-011-241200-
_____NEW HAMPSHIRE_____


CITY           SKY/WX    TMP DP  RH WIND       PRES   REMARKS
LEBANON        CLOUDY    48  46  93 CALM      30.41R FOG
KEENE          PTSUNNY   47  47 100 CALM      30.42R
MT WASHINGTON  PTSUNNY   37  28  70 SW23        N/A  WCI  26
PLYMOUTH       LGT SNOW  45  45  98 CALM      30.42R VSB 3/4
WHITEFIELD     SUNNY     44  42  93 CALM      30.39R

$$

_____REGIONAL QUEBEC LOCATIONS_____


CITY           SKY/WX    TMP DP  RH WIND       PRES   REMARKS
MONTREAL       CLOUDY    59  45  58 SE8       30.29R
QUEBEC CITY    PTSUNNY   54  48  82 NE2       30.31R
SHERBROOKE     MOSUNNY   50  45  81 E5        30.35R

_____REGIONAL ONTARIO LOCATIONS_____


CITY           SKY/WX    TMP DP  RH WIND       PRES   REMARKS
OTTAWA         MOSUNNY   57  46  67 S7        30.23S

______KEY______
VSB  - VISIBILITY IN MILES
WCI  - WIND CHILL INDEX
HX   - HEAT INDEX
$$
NNNN



USA.gov is the U.S. government's official web portal to all federal, state and local government web resources and services.